Location: Sungai Liu
(2.3667°N, 113.8667°E)
Time: 12:53:42
(UTC+00:00)

Cosmos 1606 Rocket - Pass Details

Date: 20 May 2022
Orbit: 601 x 632 km, 82.5° (Epoch: 04 July)

Event Time Altitude Azimuth Distance (km) Brightness Sun altitude
Rises 20:25:21 0° 357° (N) 2,871 7.2 -26.1°
Reaches altitude 10° 20:27:34 10° 358° (N) 1,964 6.4 -25.6°
Maximum altitude 20:31:55 85° 86° (E) 615 3.4 -24.6°
Enters shadow 20:31:56 85° 90° (E) 615 3.4 -24.6°
